Location: Dennehotso
(36.8461°N, 109.8435°W)
Time: 13:35:55
(UTC+00:00)

Envisat - Pass Details

Date: 10 March 2021
Orbit: 764 x 766 km, 98.1° (Epoch: 17 April)

Event Time Altitude Azimuth Distance (km) Brightness Sun altitude
Rises 12:21:32 0° 21° (NNE) 3,237 6.6 -15.9°
Reaches altitude 10° 12:24:00 10° 29° (NNE) 2,307 6.0 -15.4°
Maximum altitude 12:28:44 39° 98° (E) 1,143 4.5 -14.5°
Drops below altitude 10° 12:33:26 10° 166° (SSE) 2,291 5.6 -13.6°
Sets 12:35:52 0° 174° (S) 3,213 6.2 -13.1°
